Tiempo atmosférico en la estación meteorológica de Puntagorda, Santa Cruz de Tenerife (684 m.)



Fecha
DESCASC
Temp. máxima en grados centígrados (hora)
DESCASC
Temp. mínima en grados centígrados (hora)
DESCASC
Temp. media en grados centígrados
DESCASC
Racha de viento máxima en m/sg (hora)
DESCASC
Velocidad máxima media en intervalos de 10 minutos(hora)
DESCASC
Precipitaciones diarias en mm
DESCASC
Precipitaciones de 00:00 a 06:00 en mm
DESCASC
Precipitaciones de 06:00 a 12:00 en mm
DESCASC
Precipitaciones de 12:00 a 18:00 en mm
DESCASC
Precipitaciones de 18:00 a 24:00 en mm
DESCASC
22-01-2020 14.4 (15:20) 7.5 (00:30) 10.9 8.33 (16:20) 4.72 (16:30) 0 0 0 0 0
21-01-2020 14.7 (13:50) 7.8 (23:59) 11.3 12.78 (14:50) 7.78 (14:40) 2.6 0 0 2.6 0
20-01-2020 17 (16:00) 9.7 (22:30) 13.3 5.83 (11:00) 3.61 (18:10) 0 0 0 0 0
19-01-2020 20.8 (14:30) 12.2 (00:00) 16.5 6.11 (16:20) 3.61 (16:20) 0 0 0 0 0
18-01-2020 19.2 (14:00) 10.4 (00:00) 14.8 7.22 (15:10) 5 (15:10) 0 0 0 0 0
17-01-2020 17.2 (13:20) 9.1 (00:00) 13.2 5.83 (21:50) 3.33 (13:50) 0 0 0 0 0
16-01-2020 17.6 (15:50) 9 (00:00) 13.3 5 (01:00) 3.61 (04:10) 0 0 0 0 0
15-01-2020 16.4 (13:00) 9 (00:00) 12.7 9.17 (14:30) 6.39 (15:20) 0 0 0 0 0
14-01-2020 17.5 (14:20) 10.9 (00:00) 14.2 15 (11:50) 9.72 (13:30) 0 0 0 0 0
13-01-2020 17.7 (16:20) 9.7 (00:00) 13.7 5.28 (15:10) 3.33 (08:30) 0 0 0 0 0
12-01-2020 14.5 (15:40) 9.7 (05:50) 12.1 7.22 (04:20) 4.44 (04:20) 0 0 0 0 0
11-01-2020 16.3 (16:50) 10.1 (00:00) 13.2 6.11 (15:30) 3.61 (15:40) 0 0 0 0 0
10-01-2020 18 (14:50) 9.7 (00:00) 13.8 5.83 (14:00) 3.33 (13:50) 0 0 0 0 0
09-01-2020 17.8 (15:20) 9.8 (00:00) 13.8 8.33 (16:20) 4.17 (16:20) 0 0 0 0 0
08-01-2020 17.6 (16:20) 9.5 (00:00) 13.6 10 (20:00) 4.17 (20:00) 0 0 0 0 0
07-01-2020 17.9 (14:10) 9.8 (00:00) 13.8 7.22 (13:30) 3.89 (09:50) 0 0 0 0 0
06-01-2020 16.5 (17:00) 9.5 (00:00) 13 13.06 (16:30) 6.67 (18:30) 0 0 0 0 0
05-01-2020 17.5 (15:10) 9.8 (00:00) 13.7 6.11 (15:40) 3.89 (15:40) 0 0 0 0 0
04-01-2020 17.8 (17:20) 9.6 (00:00) 13.7 5 (01:20) 3.61 (01:20) 0 0 0 0 0
03-01-2020 16.5 (16:00) 8.5 (00:00) 12.5 9.44 (18:10) 6.11 (13:30) 0 0 0 0 0
02-01-2020 17.2 (14:50) 9.8 (00:00) 13.5 8.33 (06:20) 5.28 (05:50) 0 0 0 0 0
01-01-2020 18.2 (15:40) 11.1 (00:00) 14.7 8.61 (04:50) 5.83 (14:40) 0 0 0 0 0
31-12-2019 22.5 (13:10) 11.5 (00:00) 17 4.72 (13:30) 2.78 (07:40) 0 0 0 0 0
30-12-2019 -- (--) -- (--) -- -- (--) -- (--) -- 0 0 -- 0
29-12-2019 23.6 (13:20) 16.5 (00:00) 20.1 8.33 (15:00) 5.28 (15:10) 0 0 0 0 0
28-12-2019 25.5 (15:50) 17.7 (00:00) 21.6 6.11 (19:50) 3.89 (03:50) 0 0 0 0 0
27-12-2019 22.4 (12:50) 14 (00:00) 18.2 4.72 (04:10) 3.33 (22:10) 0 0 0 0 0

Gráficas

Temp. máximas Temp. mínimas Temp. medias Precipitaciones Rachas de viento máximas Velocidades máximas media en intervalos de 10 minutos

Datos horarios

Fecha y hora oficial Temperatura (ºC) Velocidad del viento (km/h) Dirección del viento Racha (km/h) Dirección de racha Precipitación (mm) Presión (hPa) Tendencia (hPa) Humedad (%)
2020-01-25 23:00:00 10.5 7 Este 20 Este 0 -- -- 74
2020-01-25 22:00:00 11.2 12 Nordeste 23 Nordeste 0 -- -- 70
2020-01-25 21:00:00 11.1 14 Nordeste 24 Nordeste 0 -- -- 75
2020-01-25 20:00:00 11.1 12 Nordeste 20 Nordeste 0 -- -- 82
2020-01-25 19:00:00 11.9 10 Nordeste 26 Norte 0 -- -- 86
2020-01-25 18:00:00 14.4 14 Nordeste 32 Norte 0 -- -- 74
2020-01-25 17:00:00 13.9 19 Norte 30 Norte 0 -- -- 74
2020-01-25 16:00:00 14.4 18 Norte 30 Norte 0 -- -- 71
2020-01-25 15:00:00 14.6 18 Norte 33 Norte 0 -- -- 71
2020-01-25 14:00:00 14.1 22 Norte 31 Nordeste 0 -- -- 71
2020-01-25 13:00:00 14.3 19 Norte 28 Norte 0 -- -- 64
2020-01-25 12:00:00 13.9 15 Norte 26 Norte 0 -- -- 70
2020-01-25 11:00:00 13 14 Norte 26 Norte 0 -- -- 71
2020-01-25 10:00:00 12 16 Norte 24 Norte 0 -- -- 72
2020-01-25 09:00:00 10.1 12 Nordeste 21 Nordeste 0 -- -- 70
2020-01-25 08:00:00 9 7 Nordeste 19 Nordeste 0 -- -- 73
2020-01-25 07:00:00 9.5 11 Nordeste 17 Nordeste 0 -- -- 79
2020-01-25 06:00:00 10 8 Nordeste 24 Nordeste 0 -- -- 84
2020-01-25 05:00:00 10.2 13 Nordeste 24 Este 0 -- -- 80
2020-01-25 04:00:00 10.3 8 Nordeste 22 Nordeste 0 -- -- 74
2020-01-25 03:00:00 11.2 10 Nordeste 22 Nordeste 0 -- -- 75
2020-01-25 02:00:00 10.2 11 Nordeste 22 Nordeste 0 -- -- 76
2020-01-25 01:00:00 10 10 Nordeste 22 Norte 0 -- -- 68
2020-01-25 00:00:00 10.3 9 Nordeste 23 Nordeste 0 -- -- 63
2020-01-24 23:00:00 11 14 Nordeste 28 Nordeste 0 -- -- 64
2020-01-24 22:00:00 11 15 Nordeste 25 Nordeste 0 -- -- 74
2020-01-24 21:00:00 10.9 8 Nordeste 20 Nordeste 0 -- -- 82
2020-01-24 20:00:00 11.2 9 Nordeste 20 Nordeste 0 -- -- 81
2020-01-24 19:00:00 11.9 11 Norte 24 Norte 0 -- -- 82
2020-01-24 18:00:00 13.4 15 Norte 23 Norte 0 -- -- 75
2020-01-24 17:00:00 14.4 15 Norte 22 Norte 0 -- -- 67
2020-01-24 16:00:00 15.1 13 Norte 24 Norte 0 -- -- 62
2020-01-24 15:00:00 14.9 13 Norte 26 Norte 0 -- -- 62
2020-01-24 14:00:00 14.1 14 Norte 24 Noroeste 0 -- -- 68
2020-01-24 13:00:00 14.1 12 Noroeste 21 Noroeste 0 -- -- 60
2020-01-24 12:00:00 12.2 8 Este 19 Noroeste 0.6 -- -- 86
2020-01-24 11:00:00 13.2 7 Noroeste 13 Norte 0 -- -- 74
2020-01-24 10:00:00 12.6 5 Nordeste 10 Norte 0 -- -- 79
2020-01-24 09:00:00 10 6 Nordeste 9 Este 0 -- -- 78
2020-01-24 08:00:00 10.2 4 Nordeste 9 Este 0 -- -- 80
2020-01-24 07:00:00 10.2 4 Norte 12 Este 0 -- -- 88
2020-01-24 06:00:00 9.6 7 Nordeste 10 Este 0 -- -- 86
2020-01-24 05:00:00 9.5 7 Nordeste 10 Norte 0 -- -- 80
2020-01-24 04:00:00 9.9 11 Este 16 Este 0 -- -- 77
2020-01-24 03:00:00 10.2 9 Nordeste 15 Nordeste 0 -- -- 70
2020-01-24 02:00:00 10.5 10 Este 18 Este 0 -- -- 63
2020-01-24 01:00:00 10.3 12 Nordeste 18 Nordeste 0 -- -- 77
2020-01-24 00:00:00 10.5 10 Nordeste 16 Nordeste 0 -- -- 75
2020-01-23 23:00:00 10.4 9 Nordeste 14 Nordeste 0 -- -- 79
2020-01-23 22:00:00 10.4 11 Este 17 Nordeste 0 -- -- 81
2020-01-23 21:00:00 10.8 6 Nordeste 16 Nordeste 0 -- -- 84
2020-01-23 20:00:00 11.4 9 Norte 18 Norte 0 -- -- 85
2020-01-23 19:00:00 11.6 13 Norte 21 Norte 0 -- -- 85
2020-01-23 18:00:00 12.9 14 Norte 25 Norte 0 -- -- 77
2020-01-23 17:00:00 13.9 15 Norte 27 Nordeste 0 -- -- 66
2020-01-23 16:00:00 14.2 17 Norte 30 Nordeste 0 -- -- 69
2020-01-23 15:00:00 14.4 18 Norte 30 Norte 0 -- -- 64
2020-01-23 14:00:00 14.3 19 Norte 30 Norte 0 -- -- 66
2020-01-23 13:00:00 13.9 16 Norte 30 Norte 0 -- -- 66
2020-01-23 12:00:00 13.6 18 Norte 30 Norte 0 -- -- 66
2020-01-23 11:00:00 13 11 Nordeste 24 Norte 0 -- -- 53
2020-01-23 10:00:00 12 12 Nordeste 23 Nordeste 0 -- -- 57
2020-01-23 09:00:00 10.2 15 Nordeste 28 Nordeste 0 -- -- 65
2020-01-23 08:00:00 9.9 14 Nordeste 23 Este 0 -- -- 68
2020-01-23 07:00:00 9.6 14 Nordeste 21 Nordeste 0 -- -- 71
2020-01-23 06:00:00 9.6 17 Nordeste 24 Nordeste 0 -- -- 69
2020-01-23 05:00:00 9.5 14 Nordeste 23 Nordeste 0 -- -- 82
2020-01-23 04:00:00 9.3 14 Nordeste 20 Nordeste 0 -- -- 77
2020-01-23 03:00:00 9.8 11 Nordeste 20 Nordeste 0 -- -- 85
2020-01-23 02:00:00 10.5 9 Nordeste 21 Nordeste 0 -- -- 87
2020-01-23 01:00:00 10.6 9 Nordeste 20 Norte 0 -- -- 83
2020-01-23 00:00:00 10.9 9 Norte 18 Norte 0 -- -- 85
2020-01-22 23:00:00 11.1 9 Norte 16 Norte 0 -- -- 81
2020-01-22 22:00:00 10.5 7 Nordeste 13 Nordeste 0 -- -- 80
2020-01-22 21:00:00 10.7 9 Nordeste 17 Este 0 -- -- 77
2020-01-22 20:00:00 10.3 7 Nordeste 19 Nordeste 0 -- -- 74
2020-01-22 19:00:00 11.1 10 Nordeste 21 Nordeste 0 -- -- 70
2020-01-22 18:00:00 13.2 11 Norte 26 Nordeste 0 -- -- 65
2020-01-22 17:00:00 14.2 14 Norte 30 Norte 0 -- -- 65
2020-01-22 16:00:00 14.4 13 Norte 24 Noroeste 0 -- -- 62
2020-01-22 15:00:00 13.8 13 Norte 27 Norte 0 -- -- 63
2020-01-22 14:00:00 13.5 11 Noroeste 20 Norte 0 -- -- 66
2020-01-22 13:00:00 13.9 9 Sudoeste 16 Sudoeste 0 -- -- 64
2020-01-22 12:00:00 12.6 5 Sudoeste 12 Noroeste 0 -- -- 75
2020-01-22 11:00:00 11.5 6 Noroeste 13 Sur 0 -- -- 84
2020-01-22 10:00:00 12.3 4 Sur 10 Oeste 0 -- -- 63
2020-01-22 09:00:00 9.9 5 Este 10 Este 0 -- -- 68
2020-01-22 08:00:00 9.2 6 Este 9 Este 0 -- -- 71
2020-01-22 07:00:00 8.9 6 Sudeste 10 Sudeste 0 -- -- 76
2020-01-22 06:00:00 8 5 Este 11 Sudeste 0 -- -- 80
2020-01-22 05:00:00 8.1 5 Sudeste 21 Sudeste 0 -- -- 75
2020-01-22 04:00:00 8.3 12 Sudeste 17 Sudeste 0 -- -- 82
2020-01-22 03:00:00 8.6 6 Sudeste 13 Este 0 -- -- 80
2020-01-22 02:00:00 8.5 5 Este 10 Este 0 -- -- 81
2020-01-22 01:00:00 8.1 3 Sur 10 Sudeste 0 -- -- 86
2020-01-22 00:00:00 7.8 6 Sudeste 10 Sudeste 0 -- -- 84
2020-01-21 23:00:00 8.6 3 Sudeste 8 Sur 0 -- -- 87
2020-01-21 22:00:00 9.6 3 Sudeste 7 Sudeste 0 -- -- 86
2020-01-21 21:00:00 10.7 3 Sur 17 Este 0 -- -- 84
2020-01-21 20:00:00 10.7 8 Este 28 Nordeste 0 -- -- 68
2020-01-21 19:00:00 10.4 15 Nordeste 36 Nordeste 0 -- -- 73
2020-01-21 18:00:00 10.9 15 Nordeste 31 Nordeste 0 -- -- 73
2020-01-21 17:00:00 10.2 22 Nordeste 42 Norte 0 -- -- 86
2020-01-21 16:00:00 10.2 22 Nordeste 40 Norte 2 -- -- 93
2020-01-21 15:00:00 10.4 25 Norte 46 Norte 0.6 -- -- 90
2020-01-21 14:00:00 14.3 20 Norte 37 Norte 0 -- -- 55
2020-01-21 13:00:00 13.6 24 Nordeste 43 Este 0 -- -- 53
2020-01-21 12:00:00 12.6 14 Nordeste 28 Este 0 -- -- 70
2020-01-21 11:00:00 10.9 16 Nordeste 31 Norte 0 -- -- 89
2020-01-21 10:00:00 13 14 Norte 31 Nordeste 0 -- -- 61
2020-01-21 09:00:00 11.6 17 Nordeste 33 Nordeste 0 -- -- 61
2020-01-21 08:00:00 11.2 8 Nordeste 27 Este 0 -- -- 65
2020-01-21 07:00:00 11.2 13 Nordeste 24 Este 0 -- -- 68
2020-01-21 06:00:00 10.5 10 Este 24 Nordeste 0 -- -- 74
2020-01-21 05:00:00 10.7 7 Nordeste 27 Nordeste 0 -- -- 71
2020-01-21 04:00:00 10.8 10 Nordeste 30 Este 0 -- -- 71
2020-01-21 03:00:00 10.9 10 Nordeste 24 Este 0 -- -- 74
2020-01-21 02:00:00 10.6 4 Este 15 Este 0 -- -- 73
2020-01-21 01:00:00 10.4 5 Sudeste 12 Norte 0 -- -- 77
2020-01-21 00:00:00 10 8 Este 14 Nordeste 0 -- -- 79
2020-01-20 23:00:00 9.9 6 Sudeste 11 Sudeste 0 -- -- 84
2020-01-20 22:00:00 10.1 3 Sudeste 12 Oeste 0 -- -- 80
2020-01-20 21:00:00 10.9 4 Sudoeste 10 Sur 0 -- -- 81
2020-01-20 20:00:00 12 6 Sur 12 Sur 0 -- -- 81
2020-01-20 19:00:00 12.5 2 Sudoeste 19 Sudoeste 0 -- -- 75
2020-01-20 18:00:00 15.1 12 Sudoeste 18 Sudoeste 0 -- -- 67
2020-01-20 17:00:00 16.3 7 Sudoeste 15 Sudoeste 0 -- -- 63
2020-01-20 16:00:00 17 8 Sudoeste 17 Sudoeste 0 -- -- 58
2020-01-20 15:00:00 15.8 6 Oeste 18 Sudoeste 0 -- -- 68
2020-01-20 14:00:00 16.3 9 Sur 16 Sudoeste 0 -- -- 68
2020-01-20 13:00:00 13.9 5 Sudoeste 15 Sur 0 -- -- 78
2020-01-20 12:00:00 14.1 8 Sudoeste 18 Sudoeste 0 -- -- 83
2020-01-20 11:00:00 14.2 13 Sur 21 Sur 0 -- -- 85
2020-01-20 10:00:00 14.3 10 Sur 16 Sur 0 -- -- 80
2020-01-20 09:00:00 12.2 5 Sudeste 15 Sudeste 0 -- -- 70
2020-01-20 08:00:00 12.4 5 Sudeste 8 Sudeste 0 -- -- 36
2020-01-20 07:00:00 13.5 5 Sudeste 10 Este 0 -- -- 34
2020-01-20 06:00:00 13.6 5 Este 10 Este 0 -- -- 33
2020-01-20 05:00:00 13.1 8 Sudeste 12 Este 0 -- -- 35
2020-01-20 04:00:00 13 2 Sudeste 12 Sudeste 0 -- -- 37
2020-01-20 03:00:00 12 0 Calma 9 Sudeste 0 -- -- 39
2020-01-20 02:00:00 12.3 2 Norte 5 Este 0 -- -- 43
2020-01-20 01:00:00 13 3 Sudeste 9 Sudeste 0 -- -- 30
2020-01-20 00:00:00 13.5 4 Este 8 Este 0 -- -- 27
2020-01-19 23:00:00 13.1 4 Sudeste 10 Sudoeste 0 -- -- 31
2020-01-19 22:00:00 12.2 5 Este 13 Nordeste 0 -- -- 45
2020-01-19 21:00:00 13.6 5 Sur 10 Sur 0 -- -- 74
2020-01-19 20:00:00 14.5 6 Sudeste 11 Este 0 -- -- 27
2020-01-19 19:00:00 15.7 5 Nordeste 11 Este 0 -- -- 26
2020-01-19 18:00:00 17.5 6 Sudoeste 12 Sur 0 -- -- 22
2020-01-19 17:00:00 19.9 6 Sudoeste 22 Sur 0 -- -- 22
2020-01-19 16:00:00 20.5 11 Sudoeste 17 Sudoeste 0 -- -- 19
2020-01-19 15:00:00 19.8 10 Noroeste 16 Oeste 0 -- -- 18
2020-01-19 14:00:00 19.5 10 Noroeste 15 Norte 0 -- -- 19
2020-01-19 13:00:00 19.2 4 Oeste 13 Oeste 0 -- -- 18
2020-01-19 12:00:00 19.4 8 Oeste 13 Sudoeste 0 -- -- 19
2020-01-19 11:00:00 18.7 3 Sudoeste 13 Sudoeste 0 -- -- 18
2020-01-19 10:00:00 18 4 Sudoeste 9 Sudeste 0 -- -- 17
2020-01-19 09:00:00 14.8 3 Nordeste 10 Nordeste 0 -- -- 20
2020-01-19 08:00:00 13.5 7 Nordeste 14 Este 0 -- -- 18
2020-01-19 07:00:00 14 3 Este 10 Sudeste 0 -- -- 22
2020-01-19 06:00:00 13.9 5 Sudeste 8 Sudeste 0 -- -- 18
2020-01-19 05:00:00 14.5 0 Calma 4 Este 0 -- -- 16
2020-01-19 04:00:00 15.2 0 Calma 7 Norte 0 -- -- 18
2020-01-19 03:00:00 14.2 0 Calma 6 Nordeste 0 -- -- 23
2020-01-19 02:00:00 14.1 3 Nordeste 12 Nordeste 0 -- -- 24
2020-01-19 01:00:00 13.6 8 Nordeste 12 Nordeste 0 -- -- 25
2020-01-19 00:00:00 13.6 5 Nordeste 8 Nordeste 0 -- -- 27
2020-01-18 23:00:00 13.2 4 Sudeste 7 Este 0 -- -- 36
2020-01-18 22:00:00 12.7 5 Sudeste 12 Sudeste 0 -- -- 35
2020-01-18 21:00:00 12.5 6 Sudeste 9 Sudeste 0 -- -- 33
2020-01-18 20:00:00 13.4 4 Este 7 Sudeste 0 -- -- 40
2020-01-18 19:00:00 15.1 5 Sur 13 Sur 0 -- -- 36
2020-01-18 18:00:00 17.6 8 Sudoeste 16 Sudoeste 0 -- -- 34
2020-01-18 17:00:00 18.4 9 Sudoeste 25 Sudoeste 0 -- -- 29
2020-01-18 16:00:00 18.3 17 Sudoeste 26 Sudoeste 0 -- -- 31
2020-01-18 15:00:00 19 17 Sur 25 Sur 0 -- -- 38
2020-01-18 14:00:00 19.2 8 Sudoeste 17 Noroeste 0 -- -- 38
2020-01-18 13:00:00 18.4 13 Noroeste 22 Norte 0 -- -- 22
2020-01-18 12:00:00 18.2 12 Norte 23 Norte 0 -- -- 24
2020-01-18 11:00:00 16.6 8 Norte 14 Norte 0 -- -- 28
2020-01-18 10:00:00 15.6 3 Oeste 6 Oeste 0 -- -- 28
2020-01-18 09:00:00 12.5 2 Sur 8 Sudeste 0 -- -- 20
2020-01-18 08:00:00 12 5 Este 8 Este 0 -- -- 21
2020-01-18 07:00:00 12.6 5 Nordeste 13 Nordeste 0 -- -- 19
2020-01-18 06:00:00 11.2 0 Calma 6 Norte 0 -- -- 31
2020-01-18 05:00:00 10.5 3 Norte 11 Nordeste 0 -- -- 32
2020-01-18 04:00:00 10.4 2 Sudeste 4 Este 0 -- -- 44
2020-01-18 03:00:00 10.5 3 Sudeste 6 Sudoeste 0 -- -- 43
2020-01-18 02:00:00 11.4 3 Sur 6 Nordeste 0 -- -- 33
2020-01-18 01:00:00 11.3 0 Calma 9 Sudeste 0 -- -- 34
2020-01-18 00:00:00 11.1 2 Sudeste 6 Sudeste 0 -- -- 34
2020-01-17 23:00:00 11.9 3 Sur 13 Nordeste 0 -- -- 19
2020-01-17 22:00:00 12.3 11 Nordeste 21 Nordeste 0 -- -- 18
2020-01-17 21:00:00 12.1 10 Nordeste 17 Nordeste 0 -- -- 23
2020-01-17 20:00:00 11.7 8 Nordeste 16 Este 0 -- -- 42
2020-01-17 19:00:00 13.2 8 Este 12 Este 0 -- -- 52
2020-01-17 18:00:00 16.4 5 Noroeste 13 Oeste 0 -- -- 40
2020-01-17 17:00:00 17.1 8 Oeste 17 Noroeste 0 -- -- 39
2020-01-17 16:00:00 16.7 10 Norte 17 Norte 0 -- -- 38
2020-01-17 15:00:00 16.3 10 Noroeste 18 Noroeste 0 -- -- 41
2020-01-17 14:00:00 16.6 10 Noroeste 19 Noroeste 0 -- -- 35
2020-01-17 13:00:00 16.7 8 Norte 15 Noroeste 0 -- -- 37
2020-01-17 12:00:00 15.4 6 Norte 12 Norte 0 -- -- 44
2020-01-17 11:00:00 14.1 4 Oeste 9 Sudoeste 0 -- -- 47
2020-01-17 10:00:00 13.8 4 Sur 8 Sur 0 -- -- 44
2020-01-17 09:00:00 10.2 2 Este 6 Sudeste 0 -- -- 34
2020-01-17 08:00:00 9.3 5 Sudeste 10 Sudeste 0 -- -- 38
2020-01-17 07:00:00 9.2 9 Sudeste 12 Sudeste 0 -- -- 37
2020-01-17 06:00:00 9.2 7 Sudeste 11 Sudeste 0 -- -- 37
2020-01-17 05:00:00 9.5 7 Sudeste 9 Sudeste 0 -- -- 45
2020-01-17 04:00:00 10 8 Nordeste 9 Este 0 -- -- 41
2020-01-17 03:00:00 10.5 5 Nordeste 8 Nordeste 0 -- -- 40
2020-01-17 02:00:00 9.8 3 Sudeste 7 Sudeste 0 -- -- 48
2020-01-17 01:00:00 10.3 2 Sudeste 7 Sudeste 0 -- -- 42
2020-01-17 00:00:00 9.9 5 Sudeste 9 Sudeste 0 -- -- 43
2020-01-16 23:00:00 10.8 6 Sudeste 8 Sudeste 0 -- -- 41
2020-01-16 22:00:00 11.1 6 Este 10 Este 0 -- -- 43
2020-01-16 21:00:00 11.5 8 Este 12 Este 0 -- -- 60
2020-01-16 20:00:00 12 4 Nordeste 6 Nordeste 0 -- -- 51
2020-01-16 19:00:00 13.3 3 Este 8 Norte 0 -- -- 55
2020-01-16 18:00:00 15.8 4 Norte 15 Oeste 0 -- -- 43
2020-01-16 17:00:00 17.1 8 Oeste 18 Oeste 0 -- -- 36
2020-01-16 16:00:00 17.4 9 Oeste 18 Oeste 0 -- -- 35
2020-01-16 15:00:00 17.1 8 Oeste 17 Oeste 0 -- -- 38
2020-01-16 14:00:00 16.1 7 Noroeste 18 Oeste 0 -- -- 37
2020-01-16 13:00:00 16.2 5 Sudoeste 17 Oeste 0 -- -- 35
2020-01-16 12:00:00 15.8 7 Sudoeste 14 Sudoeste 0 -- -- 37
2020-01-16 11:00:00 14.2 5 Oeste 10 Sur 0 -- -- 41
2020-01-16 10:00:00 14.1 6 Sur 10 Sudoeste 0 -- -- 32
2020-01-16 09:00:00 9.5 7 Sudeste 11 Sudeste 0 -- -- 39
2020-01-16 08:00:00 9 6 Sudeste 12 Sudeste 0 -- -- 44
2020-01-16 07:00:00 10.2 2 Sudeste 5 Sudeste 0 -- -- 43
2020-01-16 06:00:00 9.9 2 Nordeste 9 Sudeste 0 -- -- 41
2020-01-16 05:00:00 9.4 6 Sudeste 18 Sudeste 0 -- -- 42
2020-01-16 04:00:00 10 10 Sudeste 15 Sudeste 0 -- -- 50
2020-01-16 03:00:00 9.5 7 Sudeste 14 Sudeste 0 -- -- 42
2020-01-16 02:00:00 11.2 8 Sur 18 Sur 0 -- -- 38
2020-01-16 01:00:00 11 8 Sur 18 Sur 0 -- -- 41
2020-01-16 00:00:00 11.5 9 Sur 21 Sur 0 -- -- 51
2020-01-15 23:00:00 11 8 Sur 21 Sur 0 -- -- 47
2020-01-15 22:00:00 10.3 6 Sudeste 15 Sudeste 0 -- -- 48
2020-01-15 21:00:00 11 9 Sudeste 14 Sudeste 0 -- -- 42
2020-01-15 20:00:00 12.2 9 Sur 23 Sur 0 -- -- 39
2020-01-15 19:00:00 12.7 14 Sur 23 Sur 0 -- -- 71
2020-01-15 18:00:00 14.1 18 Sur 27 Sur 0 -- -- 69
2020-01-15 17:00:00 15.3 19 Sudoeste 32 Sur 0 -- -- 59
2020-01-15 16:00:00 15.7 22 Sudoeste 31 Sudoeste 0 -- -- 64
2020-01-15 15:00:00 15.9 22 Sudoeste 33 Sudoeste 0 -- -- 63
2020-01-15 14:00:00 16.2 21 Sudoeste 32 Sur 0 -- -- 54
2020-01-15 13:00:00 16.4 19 Sur 28 Sur 0 -- -- 47
2020-01-15 12:00:00 16 16 Sudoeste 22 Sur 0 -- -- 51
2020-01-15 11:00:00 14.6 10 Sur 15 Sur 0 -- -- 44
2020-01-15 10:00:00 13.7 7 Sur 10 Sur 0 -- -- 42
2020-01-15 09:00:00 9.8 8 Sudeste 12 Sudeste 0 -- -- 38
2020-01-15 08:00:00 9.1 5 Sudeste 9 Sudeste 0 -- -- 43
2020-01-15 07:00:00 10 0 Calma 9 Sudeste 0 -- -- 42
2020-01-15 06:00:00 9.2 6 Sudeste 15 Sudeste 0 -- -- 43
2020-01-15 05:00:00 9.8 9 Sudeste 16 Sudeste 0 -- -- 47
2020-01-15 04:00:00 9.8 6 Sudeste 15 Sur 0 -- -- 44
2020-01-15 03:00:00 10.8 9 Sudeste 22 Sur 0 -- -- 53
2020-01-15 02:00:00 10.6 7 Sudeste 27 Sur 0 -- -- 50
2020-01-15 01:00:00 11.2 9 Sur 18 Sur 0 -- -- 56
2020-01-15 00:00:00 11.1 7 Sur 22 Sudeste 0 -- -- 47
2020-01-14 23:00:00 11.7 10 Sur 22 Sur 0 -- -- 54
2020-01-14 22:00:00 10.9 6 Sur 13 Sur 0 -- -- 48
2020-01-14 21:00:00 11.8 6 Sur 20 Sur 0 -- -- 44
2020-01-14 20:00:00 12.3 8 Sur 27 Sur 0 -- -- 51
2020-01-14 19:00:00 13.4 19 Sur 39 Sur 0 -- -- 50
2020-01-14 18:00:00 15.1 26 Sur 46 Sur 0 -- -- 60
2020-01-14 17:00:00 15.7 28 Sur 42 Sudoeste 0 -- -- 58
2020-01-14 16:00:00 16.3 34 Sur 52 Sur 0 -- -- 61
2020-01-14 15:00:00 16.9 34 Sur 50 Sur 0 -- -- 47
2020-01-14 14:00:00 17.2 31 Sur 48 Sur 0 -- -- 41
2020-01-14 13:00:00 17 32 Sur 54 Sur 0 -- -- 44
2020-01-14 12:00:00 16.6 32 Sur 54 Sur 0 -- -- 46
2020-01-14 11:00:00 16 26 Sur 46 Sur 0 -- -- 43
2020-01-14 10:00:00 15.5 26 Sur 43 Sur 0 -- -- 28
2020-01-14 09:00:00 14.3 26 Sur 42 Sur 0 -- -- 29
2020-01-14 08:00:00 14.2 22 Sur 37 Sur 0 -- -- 28
2020-01-14 07:00:00 14.4 24 Sur 47 Sur 0 -- -- 27
2020-01-14 06:00:00 14.6 31 Sur 41 Sur 0 -- -- 26
2020-01-14 05:00:00 14.6 24 Sur 44 Sur 0 -- -- 26
2020-01-14 04:00:00 14.9 27 Sur 48 Sur 0 -- -- 26
2020-01-14 03:00:00 14.6 24 Sur 37 Sur 0 -- -- 27
2020-01-14 02:00:00 13 14 Sur 33 Sur 0 -- -- 36
2020-01-14 01:00:00 12.3 14 Sur 33 Sur 0 -- -- 69
2020-01-14 00:00:00 11.8 12 Sur 17 Sur 0 -- -- 75
2020-01-13 23:00:00 11.6 7 Sur 18 Sur 0 -- -- 62
2020-01-13 22:00:00 10.5 6 Sudeste 9 Sudeste 0 -- -- 61
2020-01-13 21:00:00 11.1 5 Sudeste 8 Este 0 -- -- 64
2020-01-13 20:00:00 11.9 6 Nordeste 12 Este 0 -- -- 55
2020-01-13 19:00:00 13.5 3 Este 7 Norte 0 -- -- 57
2020-01-13 18:00:00 15.9 5 Noroeste 13 Oeste 0 -- -- 61
2020-01-13 17:00:00 16.9 6 Sudoeste 17 Oeste 0 -- -- 54
2020-01-13 16:00:00 17.3 8 Oeste 19 Oeste 0 -- -- 44
2020-01-13 15:00:00 17 6 Noroeste 17 Oeste 0 -- -- 41
2020-01-13 14:00:00 16.6 6 Oeste 17 Oeste 0 -- -- 46
2020-01-13 13:00:00 16.2 7 Oeste 14 Oeste 0 -- -- 41
2020-01-13 12:00:00 15.6 7 Sudoeste 13 Sur 0 -- -- 42
2020-01-13 11:00:00 14.1 4 Sudoeste 9 Oeste 0 -- -- 44
2020-01-13 10:00:00 13.2 2 Noroeste 9 Este 0 -- -- 59
2020-01-13 09:00:00 10.6 6 Nordeste 15 Este 0 -- -- 66
2020-01-13 08:00:00 9.8 7 Este 11 Este 0 -- -- 77
2020-01-13 07:00:00 9.9 8 Este 12 Este 0 -- -- 83
2020-01-13 06:00:00 9.9 8 Este 10 Este 0 -- -- 83
2020-01-13 05:00:00 10.1 5 Nordeste 6 Este 0 -- -- 83
2020-01-13 04:00:00 10.1 2 Nordeste 12 Este 0 -- -- 83
2020-01-13 03:00:00 9.8 5 Este 8 Sudeste 0 -- -- 82
2020-01-13 02:00:00 11 3 Sudeste 5 Este 0 -- -- 80
2020-01-13 01:00:00 11.1 2 Sudeste 8 Sudeste 0 -- -- 84
2020-01-13 00:00:00 11.1 4 Sudeste 8 Sudeste 0 -- -- 81
2020-01-12 23:00:00 11.1 5 Este 8 Este 0 -- -- 75
2020-01-12 22:00:00 12.3 0 Calma 12 Nordeste 0 -- -- 80
2020-01-12 21:00:00 12.6 5 Sudeste 14 Sur 0 -- -- 84
2020-01-12 20:00:00 12.9 3 Oeste 5 Oeste 0 -- -- 86
2020-01-12 19:00:00 12.9 5 Sur 13 Sudoeste 0 -- -- 86
2020-01-12 18:00:00 13.4 4 Sudoeste 12 Sur 0 -- -- 83
2020-01-12 17:00:00 13.8 5 Sudoeste 13 Sur 0 -- -- 77
2020-01-12 16:00:00 14.4 5 Sudoeste 9 Sudoeste 0 -- -- 71
2020-01-12 15:00:00 14.3 5 Sur 14 Sur 0 -- -- 69
2020-01-12 14:00:00 13.4 11 Sur 16 Sur 0 -- -- 80
2020-01-12 13:00:00 13.8 6 Sudoeste 13 Sudoeste 0 -- -- 78
2020-01-12 12:00:00 13.7 3 Sur 12 Sur 0 -- -- 78
2020-01-12 11:00:00 13.8 9 Sur 22 Sudoeste 0 -- -- 81
2020-01-12 10:00:00 13.8 8 Sur 13 Sur 0 -- -- 73
2020-01-12 09:00:00 11.1 5 Este 14 Nordeste 0 -- -- 82
2020-01-12 08:00:00 10.3 4 Nordeste 12 Sudeste 0 -- -- 85
2020-01-12 07:00:00 10 9 Sudeste 15 Sudeste 0 -- -- 84
2020-01-12 06:00:00 9.8 9 Este 13 Este 0 -- -- 82
2020-01-12 05:00:00 10.4 4 Este 26 Sudeste 0 -- -- 78
2020-01-12 04:00:00 10.8 6 Nordeste 13 Norte 0 -- -- 79
2020-01-12 03:00:00 11 3 Este 8 Sudeste 0 -- -- 81
2020-01-12 02:00:00 10.8 6 Sudeste 8 Sudeste 0 -- -- 77
2020-01-12 01:00:00 11.1 8 Este 10 Nordeste 0 -- -- 79
2020-01-12 00:00:00 12.1 3 Sur 9 Sur 0 -- -- 81
2020-01-11 23:00:00 11.6 3 Sudeste 11 Este 0 -- -- 81
2020-01-11 22:00:00 12.2 3 Nordeste 9 Nordeste 0 -- -- 77
2020-01-11 21:00:00 12.5 0 Calma 16 Norte 0 -- -- 77
2020-01-11 20:00:00 12.5 6 Nordeste 13 Nordeste 0 -- -- 80
2020-01-11 19:00:00 13.3 0 Calma 16 Sudoeste 0 -- -- 75
2020-01-11 18:00:00 14.7 6 Sudoeste 18 Sur 0 -- -- 69
2020-01-11 17:00:00 16 8 Sudoeste 18 Sur 0 -- -- 66
2020-01-11 16:00:00 15.9 8 Sudoeste 22 Sudoeste 0 -- -- 65
2020-01-11 15:00:00 15.3 6 Oeste 17 Sudoeste 0 -- -- 69
2020-01-11 14:00:00 15.1 9 Sudoeste 20 Sur 0 -- -- 71
2020-01-11 13:00:00 14.2 6 Sur 14 Sur 0 -- -- 75
2020-01-11 12:00:00 13.8 7 Sudoeste 15 Sur 0 -- -- 80
2020-01-11 11:00:00 13.7 7 Sur 12 Sudoeste 0 -- -- 81
2020-01-11 10:00:00 13.3 4 Sudoeste 9 Sudoeste 0 -- -- 79
2020-01-11 09:00:00 12.3 6 Sur 10 Sur 0 -- -- 89
2020-01-11 08:00:00 10.9 6 Sudeste 9 Sudeste 0 -- -- 87
2020-01-11 07:00:00 10.9 4 Sudeste 14 Sur 0 -- -- 89
2020-01-11 06:00:00 10.8 7 Sur 14 Sur 0 -- -- 90
2020-01-11 05:00:00 10.8 7 Sudeste 17 Sur 0 -- -- 86
2020-01-11 04:00:00 10.1 6 Sudeste 13 Sudeste 0 -- -- 88
2020-01-11 03:00:00 10.9 0 Calma 10 Norte 0 -- -- 89
2020-01-11 02:00:00 10.6 6 Sudeste 9 Sudeste 0 -- -- 85
2020-01-11 01:00:00 10.6 4 Este 10 Sudeste 0 -- -- 87
2020-01-11 00:00:00 10.8 5 Sudeste 7 Este 0 -- -- 86
2020-01-10 23:00:00 11.6 2 Sudeste 4 Sudeste 0 -- -- 88
2020-01-10 22:00:00 11.8 2 Nordeste 9 Este 0 -- -- 86
2020-01-10 21:00:00 12.4 3 Sudeste 4 Sudeste 0 -- -- 84
2020-01-10 20:00:00 13.5 3 Norte 6 Norte 0 -- -- 85
2020-01-10 19:00:00 14.5 3 Sudoeste 10 Sudoeste 0 -- -- 80
2020-01-10 18:00:00 15.2 6 Sur 14 Sudoeste 0 -- -- 76
2020-01-10 17:00:00 16.3 6 Sur 17 Sur 0 -- -- 73
2020-01-10 16:00:00 17.3 8 Sudoeste 19 Oeste 0 -- -- 69
2020-01-10 15:00:00 17.8 10 Sudoeste 19 Oeste 0 -- -- 60
2020-01-10 14:00:00 17.3 10 Sudoeste 21 Sudoeste 0 -- -- 69
2020-01-10 13:00:00 16.4 8 Sudoeste 19 Sudoeste 0 -- -- 71
2020-01-10 12:00:00 16.1 8 Sudoeste 16 Sur 0 -- -- 69
2020-01-10 11:00:00 14.6 5 Sudoeste 15 Sudoeste 0 -- -- 71
2020-01-10 10:00:00 14.4 5 Sudoeste 10 Sudeste 0 -- -- 69
2020-01-10 09:00:00 10.7 6 Sudeste 10 Sudeste 0 -- -- 81
2020-01-10 08:00:00 10.1 6 Sudeste 11 Sudeste 0 -- -- 79
2020-01-10 07:00:00 9.9 8 Sudeste 12 Sudeste 0 -- -- 82
2020-01-10 06:00:00 9.7 6 Sudeste 12 Sudeste 0 -- -- 78
2020-01-10 05:00:00 10.1 6 Sudeste 9 Sudeste 0 -- -- 82
2020-01-10 04:00:00 10.2 5 Sudeste 9 Sudeste 0 -- -- 73
2020-01-10 03:00:00 10.4 6 Sudeste 9 Sudeste 0 -- -- 73
2020-01-10 02:00:00 10.6 4 Sudeste 12 Sudeste 0 -- -- 78
2020-01-10 01:00:00 10.6 4 Sudeste 13 Sudeste 0 -- -- 78
2020-01-10 00:00:00 10.5 5 Sudeste 10 Sur 0 -- -- 79
2020-01-09 23:00:00 10.7 7 Sudeste 14 Sudeste 0 -- -- 73
2020-01-09 22:00:00 10.9 10 Sudeste 15 Sudeste 0 -- -- 75
2020-01-09 21:00:00 11.3 6 Sudeste 14 Sudeste 0 -- -- 74
2020-01-09 20:00:00 11.8 4 Sudeste 8 Sur 0 -- -- 75
2020-01-09 19:00:00 13.4 2 Sudoeste 15 Sudoeste 0 -- -- 72
2020-01-09 18:00:00 15.6 12 Sur 20 Sudoeste 0 -- -- 66
2020-01-09 17:00:00 17.2 11 Sur 30 Noroeste 0 -- -- 58
2020-01-09 16:00:00 16.4 7 Noroeste 22 Sur 0 -- -- 61
2020-01-09 15:00:00 17 10 Oeste 24 Sur 0 -- -- 61
2020-01-09 14:00:00 16.2 9 Sudoeste 19 Sudoeste 0 -- -- 62
2020-01-09 13:00:00 16.7 13 Sur 22 Sur 0 -- -- 60
2020-01-09 12:00:00 15.9 10 Sur 23 Sur 0 -- -- 63
2020-01-09 11:00:00 14.5 6 Oeste 18 Sur 0 -- -- 69
2020-01-09 10:00:00 13.8 5 Noroeste 12 Oeste 0 -- -- 70
2020-01-09 09:00:00 10.8 3 Sudeste 16 Oeste 0 -- -- 75
2020-01-09 08:00:00 10.5 5 Noroeste 14 Sudeste 0 -- -- 77
2020-01-09 07:00:00 10.5 9 Sudeste 17 Sudeste 0 -- -- 78
2020-01-09 06:00:00 9.9 7 Sudeste 15 Sudeste 0 -- -- 78
2020-01-09 05:00:00 10.2 7 Sudeste 13 Este 0 -- -- 74
2020-01-09 04:00:00 10.6 6 Nordeste 17 Sudeste 0 -- -- 77
2020-01-09 03:00:00 11.2 6 Este 15 Este 0 -- -- 78
2020-01-09 02:00:00 10.6 6 Nordeste 10 Este 0 -- -- 74
2020-01-09 01:00:00 10.8 5 Este 15 Este 0 -- -- 71
2020-01-09 00:00:00 10.9 6 Sudeste 15 Este 0 -- -- 70
2020-01-08 23:00:00 11.7 8 Este 17 Este 0 -- -- 72
2020-01-08 22:00:00 12.6 2 Este 18 Sudeste 0 -- -- 70
2020-01-08 21:00:00 12.5 6 Este 22 Nordeste 0 -- -- 68
2020-01-08 20:00:00 13.2 15 Este 36 Este 0 -- -- 57
2020-01-08 19:00:00 14 7 Sudeste 29 Este 0 -- -- 66
2020-01-08 18:00:00 16 6 Sudoeste 22 Oeste 0 -- -- 59
2020-01-08 17:00:00 17.2 8 Oeste 17 Oeste 0 -- -- 56
2020-01-08 16:00:00 17.5 9 Sudoeste 22 Oeste 0 -- -- 52
2020-01-08 15:00:00 17.2 9 Sudoeste 17 Sudoeste 0 -- -- 50
2020-01-08 14:00:00 16.6 8 Sudoeste 21 Sur 0 -- -- 56
2020-01-08 13:00:00 16.2 10 Sudoeste 18 Sudoeste 0 -- -- 58
2020-01-08 12:00:00 16.2 9 Sudoeste 17 Sudoeste 0 -- -- 55
2020-01-08 11:00:00 14.9 9 Sur 17 Sudoeste 0 -- -- 57
2020-01-08 10:00:00 14.1 4 Sur 17 Sudeste 0 -- -- 63
2020-01-08 09:00:00 10.7 8 Sudeste 14 Sudeste 0 -- -- 70
2020-01-08 08:00:00 9.7 8 Sudeste 14 Sudeste 0 -- -- 65
2020-01-08 07:00:00 10.2 6 Este 13 Este 0 -- -- 66
2020-01-08 06:00:00 10.4 11 Sudeste 23 Este 0 -- -- 60
2020-01-08 05:00:00 10.8 6 Nordeste 16 Sudeste 0 -- -- 59
2020-01-08 04:00:00 10.1 9 Sudeste 14 Sudeste 0 -- -- 67
2020-01-08 03:00:00 10.4 6 Este 12 Este 0 -- -- 70
2020-01-08 02:00:00 10.7 5 Sudeste 14 Sudeste 0 -- -- 67
2020-01-08 01:00:00 10.4 8 Sudeste 12 Sudeste 0 -- -- 66
2020-01-08 00:00:00 10.6 8 Sudeste 13 Sudeste 0 -- -- 71
2020-01-07 23:00:00 10.9 2 Nordeste 11 Este 0 -- -- 67
2020-01-07 22:00:00 10.6 5 Sudeste 11 Sudeste 0 -- -- 73
2020-01-07 21:00:00 11.4 7 Este 9 Este 0 -- -- 74
2020-01-07 20:00:00 12.4 3 Sudeste 8 Sudoeste 0 -- -- 70
2020-01-07 19:00:00 14 5 Sudoeste 10 Oeste 0 -- -- 63
2020-01-07 18:00:00 16.1 6 Sudoeste 19 Sur 0 -- -- 59
2020-01-07 17:00:00 16 8 Sudoeste 18 Sudoeste 0 -- -- 60
2020-01-07 16:00:00 15.4 8 Sudoeste 18 Oeste 0 -- -- 59
2020-01-07 15:00:00 16.4 9 Sudoeste 23 Sur 0 -- -- 53
2020-01-07 14:00:00 17.8 12 Sur 26 Sudoeste 0 -- -- 50
2020-01-07 13:00:00 16.7 12 Sudoeste 20 Sudoeste 0 -- -- 52
2020-01-07 12:00:00 16.2 7 Sudoeste 17 Sur 0 -- -- 50
2020-01-07 11:00:00 14.5 4 Noroeste 13 Sur 0 -- -- 60
2020-01-07 10:00:00 14.1 13 Sur 20 Sur 0 -- -- 64
2020-01-07 09:00:00 10.9 7 Este 21 Este 0 -- -- 69
2020-01-07 08:00:00 11.8 6 Sudeste 19 Nordeste 0 -- -- 68
2020-01-07 07:00:00 11 6 Sur 18 Sudeste 0 -- -- 74
2020-01-07 06:00:00 10.4 5 Este 14 Este 0 -- -- 75
2020-01-07 05:00:00 9.9 6 Sudeste 12 Este 0 -- -- 79
2020-01-07 04:00:00 9.8 7 Sudeste 14 Sudeste 0 -- -- 82
2020-01-07 03:00:00 10.2 5 Este 18 Sudeste 0 -- -- 81
2020-01-07 02:00:00 10.3 7 Este 15 Sudeste 0 -- -- 80
2020-01-07 01:00:00 10.4 5 Este 15 Este 0 -- -- 76
2020-01-07 00:00:00 10.9 8 Este 19 Sudeste 0 -- -- 79
2020-01-06 23:00:00 10.8 4 Nordeste 14 Este 0 -- -- 85
2020-01-06 22:00:00 10.8 5 Sudeste 12 Este 0 -- -- 83
2020-01-06 21:00:00 12.1 4 Este 37 Este 0 -- -- 75
2020-01-06 20:00:00 13.2 17 Este 42 Nordeste 0 -- -- 69
2020-01-06 19:00:00 12.5 21 Nordeste 46 Nordeste 0 -- -- 67
2020-01-06 18:00:00 13.4 19 Nordeste 41 Nordeste 0 -- -- 77
2020-01-06 17:00:00 16.5 15 Este 47 Nordeste 0 -- -- 57
2020-01-06 16:00:00 15.3 6 Sur 38 Nordeste 0 -- -- 71
2020-01-06 15:00:00 14.1 4 Sudeste 15 Sudoeste 0 -- -- 80
2020-01-06 14:00:00 14.4 5 Sudoeste 17 Sur 0 -- -- 78
2020-01-06 13:00:00 14.3 7 Sudoeste 26 Sudoeste 0 -- -- 80
2020-01-06 12:00:00 15.8 9 Oeste 26 Sur 0 -- -- 64
2020-01-06 11:00:00 14.9 11 Sudoeste 17 Sudoeste 0 -- -- 63
2020-01-06 10:00:00 14.4 5 Sur 9 Sur 0 -- -- 60
2020-01-06 09:00:00 10.5 6 Sudeste 10 Sudeste 0 -- -- 70